Location: Brienzwiler
(46.7508°N, 8.1014°E)
Time: 16:43:35
(UTC+00:00)

USA 81 - Pass Details

Date: 05 July 2020
Orbit: 786 x 788 km, 85.0° (Epoch: 17 July)

Event Time Altitude Azimuth Distance (km) Brightness Sun altitude
Exits shadow 21:19:52 13° 190° (S) 2,164 5.9 -14.4°
Maximum altitude 21:24:40 78° 276° (W) 810 4.2 -14.8°
Drops below altitude 10° 21:29:58 10° 3° (N) 2,358 7.4 -15.3°
Sets 21:32:20 0° 5° (N) 3,291 8.3 -15.5°
